Temperature
5 4 4 4 5 6 5 6 6 6 6 5 4 4 4 4 4 3 4 4 4 5 5 6 6 6 6 6 6 6 6 6 6 6 6 6 6 6 6 6 6 6 6 6
3 4 5 5 5 5 5 5 5 5 6 5 4 4 4 3 3 3 3 3 4 4 4 5 5 5 6 6 5 5 5 5 5 5 5 6 6 5 5 6 6 6 6 6
4 4 5 5 5 5 5 4 4 5 5 4 4 4 3 3 3 3 4 4 4 3 4 4 4 4 5 5 5 5 5 5 5 5 5 5 5 5 5 5 5 5 5 5
3 4 5 5 4 4 4 5 5 4 4 3 3 3 3 2 2 2 2 3 3 3 3 3 4 4 4 4 5 4 4 4 4 4 4 4 5 5 5 5 5 5 4 5
3 3 4 4 4 4 4 4 4 4 3 2 2 2 2 2 2 2 1 2 2 3 3 3 3 4 4 4 4 4 4 4 4 4 4 4 4 4 4 4 4 4 4 4
2 3 3 3 4 4 3 3 2 2 1 2 2 2 2 1 2 2 1 2 2 2 3 3 3 3 3 3 3 3 3 3 3 3 3 3 3 3 4 4 4 4 4 4
2 2 2 3 3 3 2 2 1 2 1 1 1 1 1 1 1 1 1 2 2 2 2 2 2 2 2 2 2 3 3 3 3 3 3 3 3 3 3 3 3 3 3 3
1 1 1 2 2 1 1 1 1 2 1 1 0 0 1 0 0 1 1 1 2 2 1 1 2 2 2 2 2 2 2 2 2 2 2 2 2 2 2 2 3 3 3 3
-0 0 1 1 1 1 1 0 1 0 -0 -0 0 -1 0 -0 -0 -1 -0 0 1 1 1 1 1 1 2 2 2 2 2 2 1 1 2 2 2 2 2 2 2 2 2 2
-0 -1 -0 0 1 1 1 -0 -1 -0 0 0 0 -0 -0 0 -0 -1 -1 -1 -0 0 0 0 1 1 1 1 1 1 1 1 1 1 1 1 1 1 1 1 1 1 1 1
-1 -1 -1 -1 -1 -1 -0 -1 -1 -1 -1 -0 -0 0 -0 -1 -1 -1 -2 -1 -1 -0 -0 -0 -0 0 0 0 0 0 0 1 1 0 0 0 0 1 1 1 1 1 1 1
-2 -2 -2 -2 -2 -1 -2 -2 -2 -1 -2 -2 -1 -1 -1 -2 -2 -2 -2 -1 -1 -1 -1 -1 -1 -1 -0 -0 -0 -0 -0 -0 -0 -0 -0 -0 -0 -0 -0 -0 -0 -0 -0 -0
-2 -3 -2 -2 -2 -2 -2 -3 -3 -3 -3 -3 -2 -1 -2 -3 -3 -3 -2 -2 -2 -2 -2 -2 -1 -1 -1 -1 -1 -1 -1 -1 -1 -1 -1 -1 -1 -1 -1 -1 -1 -1 -1 -1
-1 -3 -3 -2 -2 -2 -3 -3 -3 -3 -3 -3 -3 -2 -2 -3 -3 -3 -3 -3 -3 -2 -2 -2 -2 -2 -2 -2 -2 -2 -2 -2 -1 -2 -2 -2 -2 -2 -2 -2 -2 -2 -2 -2
-3 -4 -4 -3 -2 -3 -3 -3 -3 -3 -3 -3 -3 -3 -2 -3 -3 -3 -3 -3 -3 -3 -3 -3 -3 -3 -3 -3 -3 -3 -2 -2 -2 -2 -2 -2 -2 -2 -3 -3 -3 -3 -3 -3
-4 -4 -4 -4 -3 -3 -3 -3 -3 -3 -3 -4 -3 -3 -4 -4 -3 -4 -4 -4 -4 -4 -4 -4 -4 -3 -3 -3 -3 -3 -3 -3 -3 -3 -3 -3 -3 -3 -3 -3 -3 -3 -3 -3
-5 -5 -4 -4 -4 -4 -4 -4 -4 -4 -5 -4 -4 -3 -4 -5 -5 -5 -4 -4 -4 -4 -4 -4 -4 -4 -4 -4 -4 -3 -4 -3 -3 -4 -4 -4 -4 -4 -4 -4 -4 -4 -4 -4
-5 -5 -5 -5 -5 -4 -4 -5 -5 -5 -5 -6 -5 -5 -5 -5 -5 -5 -5 -5 -5 -5 -4 -4 -4 -4 -4 -4 -4 -4 -4 -4 -4 -4 -4 -4 -5 -5 -5 -5 -5 -5 -5 -5
-6 -5 -5 -5 -5 -5 -5 -5 -6 -5 -6 -7 -6 -6 -6 -6 -6 -6 -5 -5 -5 -5 -5 -5 -5 -5 -5 -5 -5 -5 -5 -5 -5 -5 -5 -5 -5 -5 -5 -5 -5 -5 -6 -6
-6 -6 -6 -6 -6 -5 -5 -6 -6 -6 -6 -7 -7 -7 -7 -7 -7 -6 -5 -5 -5 -5 -5 -5 -5 -5 -5 -5 -5 -5 -5 -5 -5 -5 -5 -6 -6 -6 -6 -6 -6 -6 -6 -6
-6 -7 -6 -6 -6 -6 -7 -7 -6 -5 -5 -6 -7 -7 -7 -8 -7 -6 -6 -6 -6 -6 -6 -6 -6 -6 -6 -6 -6 -6 -6 -6 -6 -6 -6 -6 -6 -7 -7 -7 -7 -7 -7 -7
-7 -7 -7 -7 -7 -6 -7 -8 -7 -7 -7 -7 -7 -7 -7 -7 -7 -7 -7 -7 -7 -7 -7 -7 -7 -6 -6 -7 -7 -7 -7 -7 -7 -7 -7 -7 -7 -7 -7 -8 -8 -8 -8 -8
-8 -8 -7 -7 -6 -7 -8 -7 -7 -7 -7 -7 -7 -7 -8 -8 -8 -8 -8 -8 -7 -7 -7 -7 -7 -7 -7 -7 -7 -7 -7 -7 -8 -8 -8 -8 -8 -8 -8 -8 -8 -8 -8 -8
-9 -10 -9 -9 -9 -9 -8 -8 -7 -7 -8 -8 -8 -8 -8 -8 -9 -9 -9 -9 -8 -8 -8 -8 -8 -8 -8 -8 -8 -8 -8 -8 -8 -8 -8 -8 -8 -8 -8 -9 -9 -9 -9 -9
-10 -10 -10 -10 -10 -9 -8 -8 -8 -8 -8 -8 -8 -8 -9 -9 -9 -9 -9 -9 -9 -9 -9 -9 -9 -8 -8 -9 -9 -9 -9 -9 -9 -9 -9 -9 -9 -9 -9 -9 -9 -9 -9 -10
-11 -11 -10 -9 -9 -10 -8 -8 -8 -8 -8 -9 -9 -9 -9 -9 -9 -10 -10 -9 -9 -9 -9 -9 -9 -9 -9 -9 -9 -9 -9 -10 -10 -9 -9 -9 -10 -10 -10 -10 -10 -10 -10 -10
Wind_Speed
1 3 6 10 9 5 4 5 5 5 3 4 7 8 7 4 3 4 5 5 5 6 3 4 5 5 6 6 6 6 6 5 5 4 4 4 3 3 3 5 6 6 6 6
2 6 9 4 4 4 4 5 4 3 1 3 4 8 7 5 6 6 7 7 6 4 3 4 5 5 6 7 6 6 6 6 5 4 3 2 3 2 3 4 5 6 6 5
7 5 3 3 3 5 6 7 6 4 2 1 2 6 5 4 3 4 4 5 4 6 6 6 6 6 6 6 7 6 6 6 5 4 4 4 3 3 2 2 2 4 5 5
5 3 2 4 5 6 8 5 5 5 2 3 2 5 6 4 3 4 5 5 5 5 6 5 6 6 6 6 5 5 5 5 4 5 5 6 4 3 2 2 2 3 4 5
4 3 3 5 6 5 5 2 4 4 4 3 2 4 7 1 4 5 6 6 6 6 6 7 7 6 5 5 5 5 5 5 4 5 5 6 4 3 2 3 3 2 3 4
3 2 2 4 3 3 1 2 3 3 2 5 7 6 6 4 5 4 5 5 5 5 5 5 4 4 4 4 5 4 5 4 4 5 5 5 5 4 4 3 3 2 1 2
2 3 2 1 1 1 3 4 2 1 2 7 3 5 7 5 4 5 5 5 4 5 5 5 5 5 5 5 5 5 5 4 4 5 5 5 5 6 5 4 3 3 1 1
1 4 2 1 3 3 4 6 6 5 5 4 2 6 5 4 2 2 1 1 1 2 3 4 5 5 5 5 5 5 6 5 5 5 4 4 4 4 3 4 3 3 2 2
2 4 2 2 1 4 3 3 3 4 1 2 4 4 5 2 3 2 2 2 0 1 3 3 4 4 4 5 5 6 6 5 5 5 4 4 4 3 3 3 3 2 1 1
3 3 3 3 2 2 3 4 3 4 4 5 5 4 4 3 3 2 1 1 1 0 1 2 2 3 3 3 3 4 4 5 4 5 4 4 4 3 3 3 3 2 1 1
1 2 3 2 1 2 1 2 2 3 3 4 4 5 3 5 4 3 2 1 1 0 1 2 2 1 2 2 2 3 3 3 3 4 4 3 3 3 3 3 3 2 2 1
1 2 2 4 3 1 2 3 4 4 4 4 3 5 3 2 1 0 1 2 2 1 0 1 1 1 1 2 2 3 3 3 3 4 4 4 3 3 3 3 2 2 2 2
3 3 1 4 3 2 0 1 2 3 2 4 5 6 3 2 2 1 1 2 2 2 2 2 2 1 0 1 1 2 2 3 3 3 4 4 4 4 4 3 3 2 2 2
3 3 6 7 6 3 4 4 2 3 4 5 7 6 6 4 3 3 2 2 2 1 1 1 1 1 1 1 1 1 2 2 2 3 4 4 4 4 4 3 3 3 2 2
3 3 5 6 6 4 5 6 6 7 8 8 8 7 7 5 5 3 2 1 2 2 1 1 1 1 1 1 1 1 1 2 2 3 3 3 3 3 3 3 3 3 3 3
2 2 2 5 4 4 6 8 7 8 6 7 7 8 6 4 2 2 2 2 2 3 2 2 2 2 2 2 2 2 2 2 2 3 3 2 2 3 3 3 3 3 3 3
2 3 2 5 4 2 6 7 8 5 5 6 9 9 2 2 3 4 4 3 3 4 3 3 3 3 3 3 3 3 3 2 2 2 2 2 3 3 3 3 3 3 3 3
4 3 2 1 1 5 6 2 4 6 5 5 5 5 3 4 4 3 3 3 4 4 4 4 4 4 4 3 2 2 2 2 2 2 3 3 3 3 3 3 3 3 3 3
4 5 2 2 3 6 6 2 2 4 6 5 5 5 4 3 2 4 3 3 4 5 5 5 4 4 3 2 2 1 2 2 2 3 3 3 3 3 3 4 4 3 3 3
2 3 3 3 3 6 6 3 1 2 5 4 3 5 4 2 3 6 3 3 4 4 4 4 4 3 2 2 1 1 2 2 3 3 3 3 3 4 4 4 4 3 3 4
1 1 4 5 5 7 5 3 2 3 6 3 3 4 4 4 7 5 5 5 5 5 5 4 3 2 2 2 1 2 2 3 3 3 2 2 3 3 4 4 3 3 3 3
6 4 5 4 5 7 2 3 5 5 2 2 2 3 4 6 6 5 5 5 4 4 4 3 2 2 2 1 2 2 3 3 2 2 2 2 2 3 3 3 3 3 3 3
5 6 4 6 6 3 3 4 3 2 2 3 3 4 4 5 6 5 5 4 4 4 4 3 2 2 2 1 2 2 3 2 2 2 2 2 2 2 3 3 3 3 3 3
3 1 2 4 5 4 4 3 3 3 4 5 5 5 4 5 5 5 5 4 4 4 3 2 1 1 2 2 2 2 2 1 2 2 2 2 2 2 2 3 3 3 3 4
4 2 2 5 5 4 5 4 5 5 4 4 4 4 4 4 4 4 4 4 4 3 3 2 1 2 3 2 2 2 2 1 2 2 2 2 2 2 2 2 3 4 4 5
3 4 5 6 5 4 5 4 3 3 4 4 4 4 3 3 4 4 3 3 3 3 3 2 2 2 2 2 3 2 2 1 2 2 2 2 2 2 2 2 2 4 4 6
Wind_Direction
118 119 206 214 209 209 186 198 229 236 215 181 217 242 255 240 210 215 217 208 207 214 200 160 160 157 147 145 149 151 144 140 134 136 140 137 138 122 100 91 89 89 85 86
90 229 231 217 208 216 219 231 242 276 247 200 236 258 256 229 219 212 209 212 211 202 169 162 160 157 156 157 158 154 151 150 151 153 144 140 131 116 108 92 87 86 85 85
196 236 212 186 207 211 230 222 227 235 320 249 281 289 260 247 224 223 220 217 205 193 188 179 174 174 166 165 168 165 161 155 151 132 119 115 98 84 81 83 88 76 85 82
225 259 215 205 215 207 233 229 222 215 205 253 197 265 270 238 249 240 239 230 218 204 188 176 176 174 176 176 167 158 158 154 150 142 146 144 144 140 154 144 119 88 84 81
231 223 203 215 226 208 224 221 212 210 196 249 243 225 275 236 250 250 245 236 222 204 186 182 181 180 175 163 159 157 153 155 153 151 152 155 143 131 118 120 117 106 83 78
242 267 209 219 234 202 163 70 58 66 114 243 225 203 269 233 229 249 249 242 223 203 191 184 170 152 149 148 150 150 149 154 157 154 155 158 152 142 134 140 147 141 112 79
309 291 316 20 83 35 91 106 64 335 247 244 202 203 252 259 236 224 233 242 229 199 185 174 167 162 158 157 160 159 158 161 164 159 164 167 162 158 160 165 168 161 151 147
232 276 271 305 179 188 193 163 172 200 221 260 217 224 251 268 288 263 242 262 207 178 179 178 178 170 168 166 166 168 172 171 170 170 172 165 161 165 165 167 168 177 184 185
194 257 314 339 354 147 158 201 181 145 145 246 249 271 295 320 0 21 27 25 356 187 180 180 172 167 167 168 175 178 178 177 177 177 169 164 166 169 168 164 160 168 159 152
165 248 292 320 20 21 159 151 111 144 181 236 265 247 244 255 260 299 339 334 323 2 151 160 168 170 170 172 171 170 174 179 178 172 176 180 178 180 168 160 165 165 152 124
102 177 303 348 202 220 107 147 152 173 189 191 241 259 232 212 212 214 246 275 305 211 194 180 176 166 157 147 152 164 168 164 168 174 176 173 174 170 162 171 178 173 166 162
139 135 252 258 275 250 161 175 152 180 238 208 216 263 295 217 212 138 327 342 355 26 43 132 143 129 133 153 166 175 174 172 183 179 172 174 169 161 170 181 187 180 185 192
135 116 9 332 329 355 303 205 183 174 168 198 210 254 331 21 22 15 351 341 349 14 35 50 64 79 162 203 204 203 191 186 181 171 170 171 174 177 184 188 186 194 201 211
106 162 194 218 236 217 254 258 211 173 206 234 233 247 289 300 294 312 324 327 343 359 27 42 28 357 320 278 261 251 224 198 180 169 174 185 192 195 195 189 187 200 208 209
112 218 235 252 259 223 242 248 219 208 215 222 245 242 254 254 250 258 263 299 340 344 355 351 324 298 290 287 280 272 252 223 192 181 188 203 201 193 191 193 195 203 213 226
133 204 252 274 268 246 262 260 239 231 229 236 251 262 265 272 253 260 259 258 281 293 299 301 310 305 285 271 269 265 259 242 199 191 201 200 192 191 196 201 200 203 211 219
182 165 200 263 284 328 267 243 219 213 219 213 233 244 244 261 246 243 251 251 255 268 276 280 282 280 271 265 259 251 249 238 200 200 206 200 195 200 205 208 207 213 219 224
179 174 195 250 50 235 244 227 204 211 242 238 240 256 253 253 254 263 259 254 265 271 275 282 285 284 278 266 263 247 227 205 199 200 207 210 205 210 211 211 219 225 228 228
187 171 175 182 232 267 284 269 191 209 263 253 237 259 285 309 320 289 273 252 254 263 272 274 274 276 277 270 252 214 209 201 201 214 217 216 212 215 219 223 228 233 233 245
97 145 165 180 212 241 254 266 249 139 272 263 229 249 266 308 276 273 284 277 277 282 283 284 288 289 273 270 230 198 217 209 222 231 231 222 215 219 228 233 237 242 241 248
142 166 196 209 228 256 263 269 112 172 256 286 226 243 252 241 244 275 300 299 293 293 294 290 280 270 263 254 203 216 225 232 239 241 238 232 226 228 234 238 240 232 245 251
187 186 202 186 214 249 252 134 177 225 271 276 275 264 259 262 274 290 299 302 304 306 308 303 287 286 283 238 191 216 246 248 238 230 230 237 237 237 237 228 238 237 232 240
203 201 201 198 214 232 175 190 230 244 260 274 276 276 269 275 281 290 296 299 302 298 301 302 286 297 302 262 203 226 263 250 231 231 232 238 245 239 231 224 228 233 229 233
260 251 209 245 259 259 253 252 280 268 258 271 273 277 275 268 276 283 292 299 302 300 296 301 302 297 298 289 273 252 258 243 209 230 241 235 230 239 239 237 229 227 230 235
246 199 222 255 276 295 276 256 262 273 277 284 288 281 268 260 273 276 286 293 298 305 308 304 276 275 288 303 301 285 260 220 210 226 241 243 239 234 247 255 248 247 246 240
223 198 208 239 243 236 265 278 286 282 286 283 288 296 289 262 268 279 282 289 297 303 309 310 303 290 290 300 303 297 274 220 203 224 237 235 235 240 241 254 289 290 275 274
Height
1485 1490 1490 1488 1488 1488 1490 1492 1492 1491 1489 1493 1494 1492 1490 1489 1489 1489 1489 1489 1488 1488 1491 1492 1494 1496 1498 1500 1503 1505 1507 1509 1511 1513 1515 1517 1519 1521 1523 1525 1527 1528 1530 1531
1488 1489 1484 1485 1487 1488 1489 1491 1492 1491 1490 1492 1494 1491 1487 1487 1486 1485 1485 1485 1485 1486 1488 1489 1491 1493 1494 1497 1499 1502 1504 1507 1509 1511 1513 1516 1517 1519 1521 1523 1525 1526 1528 1529
1485 1484 1483 1485 1487 1487 1488 1490 1491 1492 1490 1491 1493 1490 1486 1483 1483 1482 1482 1482 1483 1483 1484 1485 1487 1489 1491 1494 1496 1499 1501 1504 1507 1509 1511 1513 1515 1517 1520 1521 1522 1524 1526 1527
1484 1483 1483 1483 1484 1485 1486 1485 1487 1490 1494 1497 1495 1496 1485 1482 1481 1480 1479 1479 1479 1480 1481 1482 1484 1486 1489 1491 1494 1497 1499 1502 1504 1507 1509 1510 1512 1514 1516 1518 1520 1522 1524 1525
1483 1482 1482 1482 1482 1484 1484 1484 1486 1488 1493 1498 1498 1499 1486 1482 1481 1478 1477 1476 1476 1477 1478 1480 1482 1484 1487 1490 1492 1495 1497 1500 1502 1504 1506 1509 1510 1513 1515 1517 1519 1520 1522 1523
1483 1482 1481 1481 1481 1482 1483 1485 1488 1493 1497 1500 1495 1498 1487 1483 1478 1476 1474 1473 1473 1474 1476 1478 1481 1483 1486 1488 1490 1492 1495 1497 1500 1502 1504 1506 1508 1510 1513 1514 1516 1518 1519 1521
1485 1483 1481 1481 1482 1483 1485 1491 1498 1499 1504 1497 1491 1492 1485 1478 1474 1473 1472 1471 1471 1472 1474 1476 1478 1480 1483 1485 1487 1490 1492 1495 1497 1499 1501 1503 1506 1508 1510 1512 1514 1515 1516 1518
1490 1488 1483 1482 1482 1485 1487 1489 1495 1498 1499 1496 1493 1491 1482 1475 1472 1471 1471 1471 1470 1471 1473 1474 1476 1478 1480 1483 1485 1487 1490 1492 1494 1496 1498 1501 1503 1505 1507 1509 1511 1512 1514 1515
1491 1488 1484 1482 1482 1483 1486 1489 1489 1495 1500 1500 1492 1489 1480 1474 1472 1471 1471 1470 1470 1470 1471 1473 1475 1477 1479 1481 1483 1485 1487 1489 1492 1494 1496 1498 1500 1502 1504 1506 1508 1509 1511 1512
1489 1492 1487 1484 1483 1483 1485 1487 1493 1495 1498 1494 1489 1488 1483 1475 1474 1472 1472 1470 1470 1470 1471 1472 1473 1475 1477 1479 1481 1483 1485 1487 1489 1491 1493 1495 1497 1499 1500 1502 1504 1506 1507 1508
1488 1493 1492 1489 1488 1487 1488 1489 1490 1493 1493 1493 1492 1484 1475 1473 1472 1472 1471 1470 1470 1470 1470 1471 1472 1474 1476 1478 1479 1481 1482 1484 1486 1488 1490 1492 1494 1495 1497 1499 1500 1502 1503 1504
1489 1493 1495 1491 1489 1487 1487 1488 1491 1494 1494 1494 1492 1486 1472 1472 1471 1471 1471 1470 1470 1470 1470 1471 1472 1473 1474 1475 1477 1478 1480 1481 1483 1485 1487 1489 1490 1492 1493 1495 1497 1498 1499 1500
1488 1494 1497 1492 1493 1491 1489 1489 1490 1491 1494 1494 1491 1483 1473 1472 1471 1472 1472 1471 1470 1470 1470 1470 1471 1471 1472 1473 1474 1475 1477 1478 1480 1482 1483 1485 1486 1488 1489 1491 1492 1493 1495 1496
1485 1492 1494 1492 1487 1487 1489 1488 1489 1490 1492 1491 1485 1479 1475 1474 1473 1472 1472 1471 1470 1470 1470 1469 1469 1470 1470 1471 1472 1472 1473 1475 1476 1478 1479 1480 1482 1484 1485 1486 1488 1489 1490 1491
1485 1491 1490 1487 1484 1485 1485 1484 1485 1486 1484 1484 1479 1478 1474 1473 1472 1471 1471 1471 1470 1469 1469 1468 1468 1468 1468 1468 1469 1469 1470 1472 1473 1474 1475 1476 1478 1480 1481 1482 1483 1484 1485 1486
1486 1490 1489 1487 1482 1483 1482 1480 1480 1480 1480 1480 1477 1476 1471 1471 1471 1470 1469 1469 1468 1468 1467 1467 1466 1466 1466 1466 1466 1466 1467 1468 1469 1470 1471 1472 1474 1475 1476 1477 1478 1479 1480 1481
1486 1489 1490 1487 1485 1482 1483 1479 1478 1479 1477 1476 1475 1471 1470 1470 1469 1468 1467 1467 1466 1466 1465 1464 1464 1463 1463 1463 1463 1463 1463 1464 1465 1466 1467 1469 1470 1471 1472 1473 1474 1474 1475 1476
1485 1487 1489 1489 1489 1488 1477 1474 1473 1474 1473 1473 1470 1468 1468 1468 1467 1466 1466 1465 1464 1463 1463 1461 1461 1460 1460 1460 1460 1460 1460 1461 1461 1462 1464 1465 1466 1467 1467 1468 1469 1470 1470 1471
1481 1484 1488 1490 1490 1483 1476 1472 1473 1473 1472 1470 1469 1467 1467 1466 1465 1463 1463 1463 1462 1461 1460 1458 1457 1456 1456 1456 1456 1456 1456 1457 1457 1458 1459 1461 1461 1462 1463 1463 1464 1465 1465 1466
1481 1482 1487 1489 1488 1485 1473 1470 1470 1472 1472 1466 1466 1465 1465 1465 1467 1461 1460 1460 1458 1457 1456 1454 1453 1452 1452 1452 1452 1452 1452 1453 1453 1454 1455 1456 1457 1458 1458 1459 1459 1460 1461 1461
1483 1484 1486 1487 1486 1478 1472 1469 1470 1475 1468 1465 1463 1463 1463 1463 1462 1459 1457 1456 1455 1453 1452 1450 1449 1448 1448 1448 1448 1448 1448 1449 1450 1450 1451 1452 1453 1454 1454 1454 1455 1455 1456 1456
1480 1481 1483 1484 1484 1478 1469 1468 1470 1467 1463 1462 1461 1460 1460 1458 1456 1455 1454 1452 1450 1449 1447 1446 1445 1444 1444 1444 1445 1444 1445 1446 1446 1447 1447 1448 1449 1449 1449 1450 1450 1451 1451 1451
1477 1476 1474 1474 1472 1467 1465 1464 1464 1463 1462 1460 1459 1458 1457 1455 1453 1451 1450 1448 1447 1445 1444 1443 1442 1441 1441 1441 1441 1441 1441 1442 1443 1443 1444 1444 1445 1445 1445 1446 1446 1446 1446 1446
1473 1472 1472 1471 1466 1464 1463 1462 1461 1460 1459 1458 1457 1456 1454 1452 1450 1448 1447 1445 1443 1442 1441 1440 1439 1438 1438 1438 1438 1438 1438 1439 1439 1439 1439 1440 1440 1441 1441 1441 1441 1441 1441 1441
1470 1470 1469 1468 1464 1462 1460 1459 1458 1457 1456 1455 1454 1453 1451 1449 1447 1446 1444 1442 1441 1439 1438 1438 1437 1435 1435 1435 1435 1435 1435 1436 1435 1435 1436 1436 1436 1437 1437 1437 1437 1437 1437 1437
1467 1468 1467 1463 1460 1460 1457 1456 1456 1454 1453 1452 1451 1449 1448 1446 1444 1443 1441 1440 1439 1437 1436 1435 1434 1433 1433 1432 1432 1432 1432 1432 1432 1432 1432 1432 1432 1433 1432 1432 1432 1433 1433 1433